[[{"header":{"parameterUnit":"m.s-1","parameterCategory":1,"la1":30.2991,"la2":30.254,"lo1":-89.0895,"lo2":-89.0444,"dy":0.0017,"dx":0.0017,"nx":28,"ny":28,"refTime":"2024-02-14T03:00:00:Z","depth":0,"parameterNumber":2,"parameterNumberName":"U-component_of_WINDS"},"data":[0,0,0,0,0,0,0,0,0,0,0,0,0,0,0,0,0,0,0,0,0,0,0,0,0,0,0,0,0,0,0,0,0,0,0,0,0,0,0,0,0,0,0,0,0,0,0,0,0,0,0,0,0,0,0,0,0,0,-1.4934,-1.4935,0,-1.5068,-1.507,-1.5071,-1.5038,-1.5035,-1.5032,-1.503,-1.5171,-1.5177,-1.5183,0,0,0,0,0,0,0,0,0,0,0,0,0,-1.4651,-1.4657,-1.4934,-1.4935,-1.4937,-1.5068,-1.507,-1.5071,-1.5038,-1.5035,-1.5032,-1.5029,-1.5169,-1.5176,-1.5183,0,0,0,0,0,0,0,0,0,0,0,0,0,-1.4779,-1.4658,-1.4933,-1.4936,-1.4938,-1.5067,-1.507,-1.5072,-1.5039,-1.5035,-1.5031,-1.5027,-1.5166,-1.5175,-1.5184,-1.532,0,0,-1.5213,-1.5217,0,0,0,0,0,0,0,0,-1.4772,-1.4789,-1.4934,-1.4936,-1.4938,-1.5032,-1.5022,-1.5155,-1.504,-1.5001,-1.503,-1.5025,-1.5128,-1.514,-1.5174,-1.5327,-1.5333,-1.5213,-1.5219,-1.5223,-1.5226,0,0,0,0,0,0,0,-1.4763,-1.4783,-1.4987,-1.4936,-1.4939,-1.4932,-1.4945,-1.5047,-1.5085,-1.5004,-1.5002,-1.5018,-1.5128,-1.5165,-1.5177,-1.5335,-1.5213,-1.5221,-1.5227,-1.5231,-1.5608,-1.5612,0,0,0,0,0,0,-1.4752,-1.4776,-1.4983,-1.4991,-1.4843,-1.494,-1.4955,-1.5006,-1.5084,-1.5091,-1.5021,-1.5016,-1.5151,-1.5166,-1.5182,-1.5348,-1.5223,-1.5232,-1.5237,-1.5604,-1.5609,-1.5614,0,0,0,0,0,0,-1.4746,-1.4771,-1.4977,-1.4883,-1.4909,-1.4949,-1.5006,-1.5011,-1.5047,-1.5097,-1.5103,-1.5052,-1.5149,-1.5169,-1.5286,-1.5352,-1.5236,-1.5244,-1.5599,-1.5605,-1.5612,-1.5679,0,0,0,0,0,0,-1.4738,-1.4769,-1.482,-1.4884,-1.4914,-1.5079,-1.501,-1.5016,-1.5063,-1.5058,-1.5127,-1.5135,-1.5147,-1.5273,-1.5296,-1.5363,-1.5252,-1.5593,-1.5602,-1.561,-1.5672,-1.5688,-1.5701,0,0,0,0,0,-1.4728,-1.4834,-1.4823,-1.4848,-1.4979,-1.5082,-1.5099,-1.5111,-1.5069,-1.5121,-1.5153,-1.5133,-1.5341,-1.5285,-1.5311,-1.5381,-1.5589,-1.5599,-1.5609,-1.5665,-1.5685,-1.5701,0,0,0,0,0,0,-1.4777,-1.4843,-1.4831,-1.4961,-1.5016,-1.5077,-1.5143,-1.5131,-1.52,-1.5192,-1.5204,-1.522,-1.534,-1.5372,-1.5309,-1.5518,-1.5459,-1.5475,-1.5493,-1.5512,-1.5526,-1.5517,-1.5259,0,0,0,0,0,-1.4803,-1.4881,-1.4934,-1.5044,-1.5072,-1.5103,-1.5149,-1.5152,-1.5211,-1.5234,-1.5275,-1.5333,-1.5412,-1.5463,-1.5538,-1.5676,-1.5691,-1.5737,-1.5752,-1.5764,-1.5778,-1.5854,-1.5876,-1.5647,-1.5647,-1.5647,0,0,-1.4858,-1.4903,-1.4951,-1.5055,-1.5098,-1.518,-1.5123,-1.5211,-1.5272,-1.5248,-1.5362,-1.5393,-1.5459,-1.5588,-1.5646,-1.5618,-1.5844,-1.5777,-1.5786,-1.5793,-1.5867,-1.5888,-1.5908,-1.5654,-1.5653,-1.5651,0,0,-1.4999,-1.504,-1.5136,-1.5181,-1.5248,-1.5268,-1.5291,-1.5354,-1.5373,-1.5487,-1.5471,-1.5544,-1.5679,-1.5727,-1.5769,-1.5929,-1.5914,-1.5953,-1.6032,-1.6106,-1.6124,-1.614,-1.6199,-1.622,-1.5967,-1.5967,-1.5967,0,-1.5058,-1.518,-1.5188,-1.5278,-1.5325,-1.5306,-1.5404,-1.5447,-1.5535,-1.5569,-1.5535,-1.5705,-1.5748,-1.5888,-1.5927,-1.5961,-1.5989,-1.5946,-1.6121,-1.6137,-1.6152,-1.6208,-1.623,-1.5971,-1.5971,-1.597,-1.597,0,-1.525,-1.5335,-1.5405,-1.549,-1.5544,-1.5638,-1.5662,-1.5716,-1.5715,-1.5739,-1.5856,-1.5907,-1.5992,-1.6026,-1.6026,-1.6167,-1.6147,-1.6117,-1.6059,-1.6178,-1.6231,-1.6253,-1.5978,-1.5976,-1.5975,-1.5974,0,0,-1.5427,-1.5515,-1.5541,-1.558,-1.5652,-1.5718,-1.5811,-1.5894,-1.5941,-1.6003,-1.6083,-1.6197,-1.617,-1.6218,-1.6224,-1.6289,-1.6414,-1.6251,-1.6253,-1.6281,-1.6574,-1.6597,-1.6621,-1.6404,-1.6408,-1.6411,-1.6569,0,-1.5576,-1.574,-1.575,-1.5899,-1.5978,-1.5961,-1.6043,-1.6097,-1.6122,-1.6193,-1.6221,-1.6303,-1.626,-1.6289,-1.6353,-1.6385,-1.6473,-1.6374,-1.648,-1.6483,-1.6465,-1.6649,-1.6673,-1.682,-1.659,-1.6593,-1.6596,0,-1.5771,-1.5838,-1.5995,-1.6057,-1.609,-1.6163,-1.6241,-1.6309,-1.637,-1.6383,-1.6437,-1.6434,-1.6531,-1.6468,-1.6603,-1.6535,-1.6579,-1.6602,-1.6608,-1.6619,-1.6548,-1.6667,-1.6867,-1.6889,-1.6628,-1.6625,-1.6623,0,-1.5886,-1.6015,-1.6126,-1.616,-1.6234,-1.6286,-1.632,-1.6377,-1.6426,-1.6494,-1.6527,-1.6605,-1.6649,-1.671,-1.6728,-1.668,-1.6864,-1.6801,-1.6879,-1.6879,-1.692,-1.6917,-1.7131,-1.6946,-1.6945,-1.6945,-1.6944,0,-1.6052,-1.6149,-1.6179,-1.6247,-1.6356,-1.6367,-1.6475,-1.6505,-1.6556,-1.6631,-1.6621,-1.6692,-1.6711,-1.6786,-1.6801,-1.6911,-1.6931,-1.6945,-1.6949,-1.6947,-1.6946,-1.6977,-1.6968,-1.6951,-1.6949,-1.6948,-1.6947,0,-1.6199,-1.6223,-1.6343,-1.6403,-1.6421,-1.6498,-1.6551,-1.6617,-1.664,-1.6735,-1.6758,-1.6796,-1.6883,-1.6907,-1.7012,-1.7022,-1.7152,-1.7145,-1.7132,-1.7132,-1.7209,-1.7202,-1.7451,-1.7485,-1.7277,-1.7279,-1.728,0,-1.6303,-1.6378,-1.6446,-1.6495,-1.6531,-1.661,-1.6661,-1.6675,-1.6728,-1.6804,-1.6862,-1.6947,-1.7017,-1.7158,-1.7195,-1.7275,-1.7271,-1.7353,-1.7283,-1.728,-1.7274,-1.727,-1.7278,-1.7366,-1.7369,-1.737,-1.7372,0,-1.6488,-1.6496,-1.6568,-1.6646,-1.6706,-1.6768,-1.6827,-1.6868,-1.6891,-1.6951,-1.704,-1.7094,-1.7201,-1.7287,-1.7369,-1.7404,-1.7393,-1.7393,-1.7416,-1.7416,-1.7406,-1.7414,-1.7169,-1.7388,-1.7386,-1.7385,-1.7384,-1.7384,-1.6618,-1.6683,-1.6742,-1.6824,-1.687,-1.6925,-1.6991,-1.7022,-1.7097,-1.7184,-1.7188,-1.7285,-1.7346,-1.7454,-1.7494,-1.7571,-1.7546,-1.7578,-1.7587,-1.7595,-1.7602,-1.7392,-1.7585,-1.7585,-1.7584,-1.7584,-1.7584,0,-1.6802,-1.6839,-1.6914,-1.6997,-1.7062,-1.7044,-1.7109,-1.7164,-1.725,-1.7306,-1.7375,-1.7478,-1.7561,-1.7605,-1.7688,-1.7741,-1.7738,-1.7763,-1.776,-1.7768,-1.7618,-1.7591,-1.7764,-1.7764,-1.7764,-1.7764,-1.7764,-1.7764,-1.6906,-1.7017,-1.7032,-1.7166,-1.7202,-1.7297,-1.7335,-1.7387,-1.7432,-1.7548,-1.7617,-1.7644,-1.7696,-1.7783,-1.7859,-1.787,-1.7902,-1.793,-1.7938,-1.7797,-1.7779,-1.7761,-1.7736,-1.7936,-1.7936,-1.8082,-1.8083,-1.8084]},{"header":{"parameterUnit":"m.s-1","parameterCategory":1,"la1":30.2991,"la2":30.254,"lo1":-89.0895,"lo2":-89.0444,"dy":0.0017,"dx":0.0017,"nx":28,"ny":28,"refTime":"2024-02-14T03:00:00:Z","depth":0,"parameterNumber":3,"parameterNumberName":"V-component_of_WINDS"},"data":[0,0,0,0,0,0,0,0,0,0,0,0,0,0,0,0,0,0,0,0,0,0,0,0,0,0,0,0,0,0,0,0,0,0,0,0,0,0,0,0,0,0,0,0,0,0,0,0,0,0,0,0,0,0,0,0,0,0,-1.9967,-1.9967,0,-1.9987,-1.9987,-1.9987,-1.9974,-1.9973,-1.9972,-1.9972,-1.9991,-1.9992,-1.9993,0,0,0,0,0,0,0,0,0,0,0,0,0,-1.9915,-1.9916,-1.9967,-1.9967,-1.9967,-1.9986,-1.9987,-1.9987,-1.9974,-1.9973,-1.9972,-1.9972,-1.999,-1.9992,-1.9993,0,0,0,0,0,0,0,0,0,0,0,0,0,-1.9937,-1.9917,-1.9967,-1.9963,-1.9963,-1.9986,-1.9987,-1.9987,-1.9974,-1.9973,-1.9972,-1.9971,-1.999,-1.9991,-1.9993,-2.0021,0,0,-1.9998,-1.9999,0,0,0,0,0,0,0,0,-1.9935,-1.9939,-1.9963,-1.9963,-1.9963,-1.9977,-1.9976,-1.9998,-1.9974,-1.997,-1.9972,-1.9971,-1.9987,-1.9988,-1.9994,-2.0022,-2.0023,-1.9998,-1.9999,-2.0,-2.0,0,0,0,0,0,0,0,-1.9934,-1.9938,-1.9974,-1.9964,-1.9963,-1.996,-1.9962,-1.998,-1.9983,-1.997,-1.9969,-1.9972,-1.9986,-1.9993,-1.9994,-2.0023,-1.9998,-1.9999,-2.0,-2.0001,-2.0074,-2.0075,0,0,0,0,0,0,-1.9933,-1.9936,-1.9974,-1.9975,-1.9947,-1.9961,-1.9963,-1.9973,-1.9983,-1.9983,-1.9972,-1.9971,-1.999,-1.9993,-1.9995,-2.0028,-2.0,-2.0001,-2.0002,-2.0073,-2.0074,-2.0075,0,0,0,0,0,0,-1.9932,-1.9937,-1.9973,-1.9956,-1.996,-1.9963,-1.9974,-1.9974,-1.998,-1.9985,-1.9985,-1.9978,-1.999,-1.9993,-2.0015,-2.0028,-2.0002,-2.0003,-2.0072,-2.0073,-2.0074,-2.0094,0,0,0,0,0,0,-1.9931,-1.9936,-1.9947,-1.9956,-1.9961,-1.9993,-1.9975,-1.9975,-1.9983,-1.9981,-1.999,-1.9991,-1.9989,-2.0012,-2.0016,-2.003,-2.0005,-2.007,-2.0072,-2.0074,-2.0092,-2.0096,-2.0099,0,0,0,0,0,-1.9929,-1.9952,-1.9948,-1.9953,-1.9975,-1.9994,-1.9996,-1.9995,-1.9984,-1.9995,-1.9998,-1.999,-2.0026,-2.0015,-2.0019,-2.0033,-2.007,-2.0072,-2.0074,-2.0091,-2.0095,-2.0099,0,0,0,0,0,0,-1.9945,-1.9953,-1.9949,-1.9976,-1.9984,-1.9991,-2.0005,-2.0,-2.0011,-2.0009,-2.0006,-2.0008,-2.0031,-2.0034,-2.0021,-2.0061,-2.0046,-2.0049,-2.0057,-2.0062,-2.0065,-2.0064,-2.0006,0,0,0,0,0,-1.9952,-1.9967,-1.9973,-1.9996,-2.0,-2.0002,-2.001,-2.0008,-2.0016,-2.002,-2.0024,-2.0032,-2.0045,-2.0054,-2.0066,-2.0093,-2.0094,-2.0105,-2.0108,-2.0111,-2.0114,-2.0128,-2.0132,-2.0082,-2.0082,-2.0082,0,0,-1.9965,-1.9972,-1.9981,-1.9999,-2.0005,-2.002,-2.0005,-2.0022,-2.0033,-2.0022,-2.0043,-2.0046,-2.0055,-2.0079,-2.009,-2.0083,-2.0128,-2.0114,-2.0116,-2.0118,-2.013,-2.0135,-2.0139,-2.0084,-2.0083,-2.0083,0,0,-1.9998,-2.0005,-2.0025,-2.0031,-2.0041,-2.0042,-2.0047,-2.0055,-2.0057,-2.0078,-2.007,-2.0082,-2.0105,-2.0111,-2.0118,-2.0152,-2.0145,-2.0156,-2.0175,-2.0188,-2.0192,-2.0196,-2.0207,-2.0212,-2.0159,-2.0159,-2.0159,0,-2.0014,-2.0037,-2.0035,-2.0052,-2.006,-2.0052,-2.0071,-2.0077,-2.009,-2.0096,-2.0087,-2.0115,-2.0121,-2.0146,-2.0154,-2.016,-2.0164,-2.0155,-2.0192,-2.0195,-2.0198,-2.021,-2.0214,-2.016,-2.016,-2.016,-2.016,0,-2.0056,-2.0072,-2.0086,-2.0099,-2.0109,-2.0127,-2.0127,-2.0137,-2.0133,-2.0135,-2.0156,-2.0162,-2.0175,-2.0181,-2.0178,-2.0205,-2.0201,-2.0192,-2.0178,-2.0204,-2.0215,-2.0219,-2.0162,-2.0162,-2.0161,-2.0161,0,0,-2.01,-2.0111,-2.0117,-2.0122,-2.0132,-2.0144,-2.0161,-2.0174,-2.0182,-2.0192,-2.0206,-2.0225,-2.0217,-2.0224,-2.0221,-2.0233,-2.026,-2.0223,-2.0223,-2.0229,-2.029,-2.0296,-2.0301,-2.0255,-2.0256,-2.0257,-2.0289,0,-2.0133,-2.0164,-2.0162,-2.0191,-2.0205,-2.0197,-2.0212,-2.0219,-2.0221,-2.0233,-2.0234,-2.0248,-2.0237,-2.0241,-2.0252,-2.0254,-2.0272,-2.0252,-2.0268,-2.0268,-2.0265,-2.0306,-2.0313,-2.0343,-2.0293,-2.0293,-2.0294,0,-2.0176,-2.0187,-2.0217,-2.0224,-2.023,-2.0244,-2.0255,-2.0266,-2.0274,-2.0275,-2.0282,-2.0278,-2.0294,-2.028,-2.0302,-2.0289,-2.0295,-2.0297,-2.0298,-2.0299,-2.0283,-2.0308,-2.0352,-2.0357,-2.03,-2.03,-2.0299,0,-2.0204,-2.0226,-2.0247,-2.0252,-2.0261,-2.0271,-2.0275,-2.0282,-2.0289,-2.0299,-2.0304,-2.0316,-2.0322,-2.0331,-2.0329,-2.0318,-2.0352,-2.0337,-2.0352,-2.0352,-2.0359,-2.0359,-2.0405,-2.0364,-2.0364,-2.0364,-2.0364,0,-2.0242,-2.026,-2.026,-2.0273,-2.0293,-2.0291,-2.031,-2.0313,-2.0319,-2.0332,-2.0325,-2.0337,-2.0335,-2.0346,-2.0345,-2.0364,-2.0367,-2.0367,-2.0366,-2.0367,-2.0367,-2.0371,-2.0369,-2.0365,-2.0365,-2.0365,-2.0364,0,-2.0277,-2.0278,-2.0299,-2.0306,-2.0308,-2.0323,-2.0328,-2.034,-2.0341,-2.0356,-2.036,-2.0361,-2.0375,-2.0374,-2.0389,-2.0388,-2.0411,-2.0408,-2.0408,-2.0408,-2.0423,-2.0421,-2.0472,-2.0479,-2.0434,-2.0435,-2.0435,0,-2.03,-2.0315,-2.0323,-2.0331,-2.0335,-2.0349,-2.0356,-2.0354,-2.0362,-2.0372,-2.0382,-2.0395,-2.0405,-2.0426,-2.0428,-2.0439,-2.0436,-2.0454,-2.0438,-2.0439,-2.0436,-2.0435,-2.0436,-2.0457,-2.0457,-2.0458,-2.0458,0,-2.0342,-2.0342,-2.0353,-2.0365,-2.0374,-2.0383,-2.0392,-2.0399,-2.0397,-2.0407,-2.042,-2.0428,-2.0443,-2.0455,-2.0466,-2.0469,-2.0463,-2.0463,-2.0467,-2.0468,-2.0467,-2.0467,-2.0416,-2.0462,-2.0461,-2.0461,-2.0461,-2.0461,-2.0372,-2.0384,-2.0391,-2.0404,-2.041,-2.0418,-2.0429,-2.0431,-2.0443,-2.0455,-2.0453,-2.0468,-2.0474,-2.0488,-2.0492,-2.0503,-2.0497,-2.0503,-2.0505,-2.0506,-2.0508,-2.0466,-2.0505,-2.0505,-2.0505,-2.0505,-2.0505,0,-2.0413,-2.0417,-2.0429,-2.0441,-2.0451,-2.0444,-2.0453,-2.0462,-2.0475,-2.0482,-2.0492,-2.0507,-2.0519,-2.0521,-2.0532,-2.0541,-2.0538,-2.0544,-2.0543,-2.0544,-2.0513,-2.0508,-2.0546,-2.0546,-2.0546,-2.0546,-2.0546,-2.0546,-2.0435,-2.0455,-2.0455,-2.0477,-2.0481,-2.0496,-2.0501,-2.0508,-2.0513,-2.0531,-2.054,-2.0542,-2.0547,-2.0558,-2.0569,-2.0569,-2.0573,-2.058,-2.0579,-2.055,-2.0546,-2.0542,-2.0538,-2.0581,-2.0581,-2.0609,-2.061,-2.061]}]]